Year,Month,Day,Hour,Minute,Value (Times are PST for temperature in C)
2016,03,28,00,00,6.30
2016,03,28,00,01,6.30
2016,03,28,00,02,6.30
2016,03,28,00,03,6.30
2016,03,28,00,04,6.30
2016,03,28,00,05,6.30
2016,03,28,00,06,6.30
2016,03,28,00,07,6.30
2016,03,28,00,08,6.30
2016,03,28,00,09,6.30
2016,03,28,00,10,6.30
2016,03,28,00,11,6.30
2016,03,28,00,12,6.30
2016,03,28,00,13,6.30
2016,03,28,00,14,6.30
2016,03,28,00,15,6.30
2016,03,28,00,16,6.40
2016,03,28,00,17,6.40
2016,03,28,00,18,6.40
2016,03,28,00,19,6.40
2016,03,28,00,20,6.40
2016,03,28,00,21,6.40
2016,03,28,00,22,6.30
2016,03,28,00,23,6.30
2016,03,28,00,24,6.30
2016,03,28,00,25,6.20
2016,03,28,00,26,6.20
2016,03,28,00,27,6.20
2016,03,28,00,28,6.10
2016,03,28,00,29,6.10
2016,03,28,00,30,6.10
2016,03,28,00,31,6.00
2016,03,28,00,32,6.00
2016,03,28,00,33,6.00
2016,03,28,00,34,5.90
2016,03,28,00,35,5.90
2016,03,28,00,36,5.80
2016,03,28,00,37,5.80
2016,03,28,00,38,5.80
2016,03,28,00,39,5.80
2016,03,28,00,40,5.80
2016,03,28,00,41,5.70
2016,03,28,00,42,5.70
2016,03,28,00,43,5.70
2016,03,28,00,44,5.70
2016,03,28,00,45,5.60
2016,03,28,00,46,5.60
2016,03,28,00,47,5.60
2016,03,28,00,48,5.60
2016,03,28,00,49,5.60
2016,03,28,00,50,5.50
2016,03,28,00,51,5.50
2016,03,28,00,52,5.50
2016,03,28,00,53,5.40
2016,03,28,00,54,5.40
2016,03,28,00,55,5.40
2016,03,28,00,56,5.40
2016,03,28,00,57,5.30
2016,03,28,00,58,5.30
2016,03,28,00,59,5.30
2016,03,28,01,00,5.30
2016,03,28,01,01,5.30
2016,03,28,01,02,5.30
2016,03,28,01,03,5.30
2016,03,28,01,04,5.40
2016,03,28,01,05,5.40
2016,03,28,01,06,5.30
2016,03,28,01,07,5.30
2016,03,28,01,08,5.30
2016,03,28,01,09,5.30
2016,03,28,01,10,5.30
2016,03,28,01,11,5.30
2016,03,28,01,12,5.30
2016,03,28,01,13,5.30
2016,03,28,01,14,5.30
2016,03,28,01,15,5.30
2016,03,28,01,16,5.20
2016,03,28,01,17,5.20
2016,03,28,01,18,5.20
2016,03,28,01,19,5.20
2016,03,28,01,20,5.20
2016,03,28,01,21,5.20
2016,03,28,01,22,5.20
2016,03,28,01,23,5.20
2016,03,28,01,24,5.10
2016,03,28,01,25,5.10
2016,03,28,01,26,5.10
2016,03,28,01,27,5.10
2016,03,28,01,28,5.10
2016,03,28,01,29,5.10
2016,03,28,01,30,5.10
2016,03,28,01,31,5.10
2016,03,28,01,32,5.10
2016,03,28,01,33,5.10
2016,03,28,01,34,5.10
2016,03,28,01,35,5.10
2016,03,28,01,36,5.10
2016,03,28,01,37,5.10
2016,03,28,01,38,5.10
2016,03,28,01,39,5.10
2016,03,28,01,40,5.10
2016,03,28,01,41,5.10
2016,03,28,01,42,5.10
2016,03,28,01,43,5.10
2016,03,28,01,44,5.10
2016,03,28,01,45,5.10
2016,03,28,01,46,5.10
2016,03,28,01,47,5.10
2016,03,28,01,48,5.10
2016,03,28,01,49,5.10
2016,03,28,01,50,5.10
2016,03,28,01,51,5.10
2016,03,28,01,52,5.10
2016,03,28,01,53,5.10
2016,03,28,01,54,5.10
2016,03,28,01,55,5.10
2016,03,28,01,56,5.10
2016,03,28,01,57,5.10
2016,03,28,01,58,5.10
2016,03,28,01,59,5.10
2016,03,28,02,00,5.20
2016,03,28,02,01,5.20
2016,03,28,02,02,5.20
2016,03,28,02,03,5.20
2016,03,28,02,04,5.20
2016,03,28,02,05,5.20
2016,03,28,02,06,5.20
2016,03,28,02,07,5.20
2016,03,28,02,08,5.20
2016,03,28,02,09,5.20
2016,03,28,02,10,5.20
2016,03,28,02,11,5.20
2016,03,28,02,12,5.20
2016,03,28,02,13,5.20
2016,03,28,02,14,5.20
2016,03,28,02,15,5.20
2016,03,28,02,16,5.10
2016,03,28,02,17,5.10
2016,03,28,02,18,5.10
2016,03,28,02,19,5.10
2016,03,28,02,20,5.10
2016,03,28,02,21,5.10
2016,03,28,02,22,5.10
2016,03,28,02,23,5.10
2016,03,28,02,24,5.10
2016,03,28,02,25,5.10
2016,03,28,02,26,5.10
2016,03,28,02,27,5.10
2016,03,28,02,28,5.00
2016,03,28,02,29,5.00
2016,03,28,02,30,5.00
2016,03,28,02,31,4.90
2016,03,28,02,32,4.90
2016,03,28,02,33,4.90
2016,03,28,02,34,4.80
2016,03,28,02,35,4.80
2016,03,28,02,36,4.80
2016,03,28,02,37,4.80
2016,03,28,02,38,4.80
2016,03,28,02,39,4.80
2016,03,28,02,40,4.70
2016,03,28,02,41,4.70
2016,03,28,02,42,4.70
2016,03,28,02,43,4.70
2016,03,28,02,44,4.70
2016,03,28,02,45,4.60
2016,03,28,02,46,4.60
2016,03,28,02,47,4.60
2016,03,28,02,48,4.60
2016,03,28,02,49,4.60
2016,03,28,02,50,4.50
2016,03,28,02,51,4.50
2016,03,28,02,52,4.50
2016,03,28,02,53,4.50
2016,03,28,02,54,4.40
2016,03,28,02,55,4.40
2016,03,28,02,56,4.40
2016,03,28,02,57,4.40
2016,03,28,02,58,4.30
2016,03,28,02,59,4.30
2016,03,28,03,00,4.30
2016,03,28,03,01,4.30
2016,03,28,03,02,4.30
2016,03,28,03,03,4.20
2016,03,28,03,04,4.20
2016,03,28,03,05,4.20
2016,03,28,03,06,4.20
2016,03,28,03,07,4.10
2016,03,28,03,08,4.10
2016,03,28,03,09,4.10
2016,03,28,03,10,4.10
2016,03,28,03,11,4.10
2016,03,28,03,12,4.10
2016,03,28,03,13,4.00
2016,03,28,03,14,4.00
2016,03,28,03,15,4.00
2016,03,28,03,16,4.00
2016,03,28,03,17,3.90
2016,03,28,03,18,3.90
2016,03,28,03,19,3.90
2016,03,28,03,20,3.90
2016,03,28,03,21,3.90
2016,03,28,03,22,3.90
2016,03,28,03,23,3.90
2016,03,28,03,24,3.80
2016,03,28,03,25,3.80
2016,03,28,03,26,3.80
2016,03,28,03,27,3.80
2016,03,28,03,28,3.80
2016,03,28,03,29,3.80
2016,03,28,03,30,3.80
2016,03,28,03,31,3.80
2016,03,28,03,32,3.80
2016,03,28,03,33,3.80
2016,03,28,03,34,3.80
2016,03,28,03,35,3.70
2016,03,28,03,36,3.70
2016,03,28,03,37,3.70
2016,03,28,03,38,3.70
2016,03,28,03,39,3.70
2016,03,28,03,40,3.70
2016,03,28,03,41,3.70
2016,03,28,03,42,3.70
2016,03,28,03,43,3.70
2016,03,28,03,44,3.70
2016,03,28,03,45,3.70
2016,03,28,03,46,3.60
2016,03,28,03,47,3.60
2016,03,28,03,48,3.60
2016,03,28,03,49,3.60
2016,03,28,03,50,3.60
2016,03,28,03,51,3.60
2016,03,28,03,52,3.60
2016,03,28,03,53,3.60
2016,03,28,03,54,3.60
2016,03,28,03,55,3.60
2016,03,28,03,56,3.60
2016,03,28,03,57,3.60
2016,03,28,03,58,3.60
2016,03,28,03,59,3.60
2016,03,28,04,00,3.50
2016,03,28,04,01,3.50
2016,03,28,04,02,3.50
2016,03,28,04,03,3.50
2016,03,28,04,04,3.50
2016,03,28,04,05,3.50
2016,03,28,04,06,3.50
2016,03,28,04,07,3.50
2016,03,28,04,08,3.50
2016,03,28,04,09,3.40
2016,03,28,04,10,3.40
2016,03,28,04,11,3.40
2016,03,28,04,12,3.40
2016,03,28,04,13,3.40
2016,03,28,04,14,3.40
2016,03,28,04,15,3.40
2016,03,28,04,16,3.40
2016,03,28,04,17,3.40
2016,03,28,04,18,3.40
2016,03,28,04,19,3.40
2016,03,28,04,20,3.40
2016,03,28,04,21,3.30
2016,03,28,04,22,3.30
2016,03,28,04,23,3.30
2016,03,28,04,24,3.30
2016,03,28,04,25,3.30
2016,03,28,04,26,3.30
2016,03,28,04,27,3.30
2016,03,28,04,28,3.30
2016,03,28,04,29,3.30
2016,03,28,04,30,3.30
2016,03,28,04,31,3.30
2016,03,28,04,32,3.30
2016,03,28,04,33,3.30
2016,03,28,04,34,3.30
2016,03,28,04,35,3.30
2016,03,28,04,36,3.30
2016,03,28,04,37,3.20
2016,03,28,04,38,3.20
2016,03,28,04,39,3.20
2016,03,28,04,40,3.20
2016,03,28,04,41,3.20
2016,03,28,04,42,3.20
2016,03,28,04,43,3.20
2016,03,28,04,44,3.20
2016,03,28,04,45,3.20
2016,03,28,04,46,3.20
2016,03,28,04,47,3.10
2016,03,28,04,48,3.10
2016,03,28,04,49,3.10
2016,03,28,04,50,3.10
2016,03,28,04,51,3.10
2016,03,28,04,52,3.10
2016,03,28,04,53,3.00
2016,03,28,04,54,3.00
2016,03,28,04,55,3.00
2016,03,28,04,56,3.00
2016,03,28,04,57,2.90
2016,03,28,04,58,2.90
2016,03,28,04,59,2.90
2016,03,28,05,00,2.90
2016,03,28,05,01,2.90
2016,03,28,05,02,2.80
2016,03,28,05,03,2.80
2016,03,28,05,04,2.80
2016,03,28,05,05,2.80
2016,03,28,05,06,2.80
2016,03,28,05,07,2.80
2016,03,28,05,08,2.70
2016,03,28,05,09,2.70
2016,03,28,05,10,2.70
2016,03,28,05,11,2.70
2016,03,28,05,12,2.70
2016,03,28,05,13,2.70
2016,03,28,05,14,2.70
2016,03,28,05,15,2.60
2016,03,28,05,16,2.60
2016,03,28,05,17,2.60
2016,03,28,05,18,2.60
2016,03,28,05,19,2.60
2016,03,28,05,20,2.60
2016,03,28,05,21,2.60
2016,03,28,05,22,2.50
2016,03,28,05,23,2.50
2016,03,28,05,24,2.50
2016,03,28,05,25,2.50
2016,03,28,05,26,2.40
2016,03,28,05,27,2.40
2016,03,28,05,28,2.40
2016,03,28,05,29,2.40
2016,03,28,05,30,2.40
2016,03,28,05,31,2.30
2016,03,28,05,32,2.30
2016,03,28,05,33,2.30
2016,03,28,05,34,2.30
2016,03,28,05,35,2.30
2016,03,28,05,36,2.30
2016,03,28,05,37,2.30
2016,03,28,05,38,2.30
2016,03,28,05,39,2.30
2016,03,28,05,40,2.30
2016,03,28,05,41,2.30
2016,03,28,05,42,2.30
2016,03,28,05,43,2.30
2016,03,28,05,44,2.30
2016,03,28,05,45,2.30
2016,03,28,05,46,2.30
2016,03,28,05,47,2.30
2016,03,28,05,48,2.20
2016,03,28,05,49,2.20
2016,03,28,05,50,2.20
2016,03,28,05,51,2.20
2016,03,28,05,52,2.20
2016,03,28,05,53,2.10
2016,03,28,05,54,2.10
2016,03,28,05,55,2.10
2016,03,28,05,56,2.10
2016,03,28,05,57,2.10
2016,03,28,05,58,2.10
2016,03,28,05,59,2.10
2016,03,28,06,00,2.10
2016,03,28,06,01,2.10
2016,03,28,06,02,2.10
2016,03,28,06,03,2.10
2016,03,28,06,04,2.10
2016,03,28,06,05,2.10
2016,03,28,06,06,2.10
2016,03,28,06,07,2.10
2016,03,28,06,08,2.00
2016,03,28,06,09,2.00
2016,03,28,06,10,2.00
2016,03,28,06,11,1.90
2016,03,28,06,12,1.90
2016,03,28,06,13,1.90
2016,03,28,06,14,1.80
2016,03,28,06,15,1.80
2016,03,28,06,16,1.80
2016,03,28,06,17,1.80
2016,03,28,06,18,1.80
2016,03,28,06,19,1.80
2016,03,28,06,20,1.80
2016,03,28,06,21,1.80
2016,03,28,06,22,1.80
2016,03,28,06,23,1.80
2016,03,28,06,24,1.80
2016,03,28,06,25,1.80
2016,03,28,06,26,1.80
2016,03,28,06,27,1.80
2016,03,28,06,28,1.80
2016,03,28,06,29,1.80
2016,03,28,06,30,1.80
2016,03,28,06,31,1.80
2016,03,28,06,32,1.80
2016,03,28,06,33,1.80
2016,03,28,06,34,1.80
2016,03,28,06,35,1.80
2016,03,28,06,36,1.80
2016,03,28,06,37,1.80
2016,03,28,06,38,1.80
2016,03,28,06,39,1.80
2016,03,28,06,40,1.80
2016,03,28,06,41,1.80
2016,03,28,06,42,1.80
2016,03,28,06,43,1.80
2016,03,28,06,44,1.80
2016,03,28,06,45,1.80
2016,03,28,06,46,1.70
2016,03,28,06,47,1.70
2016,03,28,06,48,1.70
2016,03,28,06,49,1.60
2016,03,28,06,50,1.60
2016,03,28,06,51,1.60
2016,03,28,06,52,1.60
2016,03,28,06,53,1.60
2016,03,28,06,54,1.50
2016,03,28,06,55,1.50
2016,03,28,06,56,1.50
2016,03,28,06,57,1.40
2016,03,28,06,58,1.40
2016,03,28,06,59,1.40
2016,03,28,07,00,1.40
2016,03,28,07,01,1.40
2016,03,28,07,02,1.30
2016,03,28,07,03,1.30
2016,03,28,07,04,1.30
2016,03,28,07,05,1.30
2016,03,28,07,06,1.30
2016,03,28,07,07,1.30
2016,03,28,07,08,1.30
2016,03,28,07,09,1.40
2016,03,28,07,10,1.40
2016,03,28,07,11,1.40
2016,03,28,07,12,1.40
2016,03,28,07,13,1.40
2016,03,28,07,14,1.40
2016,03,28,07,15,1.40
2016,03,28,07,16,1.40
2016,03,28,07,17,1.40
2016,03,28,07,18,1.40
2016,03,28,07,19,1.40
2016,03,28,07,20,1.40
2016,03,28,07,21,1.40
2016,03,28,07,22,1.40
2016,03,28,07,23,1.40
2016,03,28,07,24,1.40
2016,03,28,07,25,1.40
2016,03,28,07,26,1.30
2016,03,28,07,27,1.30
2016,03,28,07,28,1.30
2016,03,28,07,29,1.30
2016,03,28,07,30,1.30
2016,03,28,07,31,1.30
2016,03,28,07,32,1.40
2016,03,28,07,33,1.40
2016,03,28,07,34,1.50
2016,03,28,07,35,1.50
2016,03,28,07,36,1.50
2016,03,28,07,37,1.60
2016,03,28,07,38,1.60
2016,03,28,07,39,1.70
2016,03,28,07,40,1.70
2016,03,28,07,41,1.80
2016,03,28,07,42,1.80
2016,03,28,07,43,1.80
2016,03,28,07,44,1.90
2016,03,28,07,45,1.90
2016,03,28,07,46,2.00
2016,03,28,07,47,2.10
2016,03,28,07,48,2.10
2016,03,28,07,49,2.20
2016,03,28,07,50,2.20
2016,03,28,07,51,2.30
2016,03,28,07,52,2.30
2016,03,28,07,53,2.30
2016,03,28,07,54,2.40
2016,03,28,07,55,2.40
2016,03,28,07,56,2.50
2016,03,28,07,57,2.60
2016,03,28,07,58,2.70
2016,03,28,07,59,2.70
2016,03,28,08,00,2.80
2016,03,28,08,01,2.80
2016,03,28,08,02,2.80
2016,03,28,08,03,2.80
2016,03,28,08,04,2.80
2016,03,28,08,05,2.80
2016,03,28,08,06,2.80
2016,03,28,08,07,2.80
2016,03,28,08,08,2.90
2016,03,28,08,09,2.90
2016,03,28,08,10,3.00
2016,03,28,08,11,3.10
2016,03,28,08,12,3.20
2016,03,28,08,13,3.30
2016,03,28,08,14,3.30
2016,03,28,08,15,3.40
2016,03,28,08,16,3.40
2016,03,28,08,17,3.50
2016,03,28,08,18,3.60
2016,03,28,08,19,3.70
2016,03,28,08,20,3.80
2016,03,28,08,21,3.80
2016,03,28,08,22,3.90
2016,03,28,08,23,4.00
2016,03,28,08,24,4.00
2016,03,28,08,25,4.10
2016,03,28,08,26,4.20
2016,03,28,08,27,4.30
2016,03,28,08,28,4.30
2016,03,28,08,29,4.40
2016,03,28,08,30,4.40
2016,03,28,08,31,4.40
2016,03,28,08,32,4.40
2016,03,28,08,33,4.50
2016,03,28,08,34,4.50
2016,03,28,08,35,4.50
2016,03,28,08,36,4.60
2016,03,28,08,37,4.60
2016,03,28,08,38,4.60
2016,03,28,08,39,4.70
2016,03,28,08,40,4.80
2016,03,28,08,41,4.90
2016,03,28,08,42,5.00
2016,03,28,08,43,5.10
2016,03,28,08,44,5.20
2016,03,28,08,45,5.40
2016,03,28,08,46,5.50
2016,03,28,08,47,5.60
2016,03,28,08,48,5.70
2016,03,28,08,49,5.80
2016,03,28,08,50,5.90
2016,03,28,08,51,6.00
2016,03,28,08,52,6.10
2016,03,28,08,53,6.20
2016,03,28,08,54,6.30
2016,03,28,08,55,6.40
2016,03,28,08,56,6.50
2016,03,28,08,57,6.70
2016,03,28,08,58,6.80
2016,03,28,08,59,6.90
2016,03,28,09,00,7.00
2016,03,28,09,01,7.10
2016,03,28,09,02,7.20
2016,03,28,09,03,7.20
2016,03,28,09,04,7.30
2016,03,28,09,05,7.40
2016,03,28,09,06,7.50
2016,03,28,09,07,7.60
2016,03,28,09,08,7.60
2016,03,28,09,09,7.70
2016,03,28,09,10,7.80
2016,03,28,09,11,7.80
2016,03,28,09,12,7.90
2016,03,28,09,13,8.00
2016,03,28,09,14,8.10
2016,03,28,09,15,8.20
2016,03,28,09,16,8.20
2016,03,28,09,17,8.20
2016,03,28,09,18,8.20
2016,03,28,09,19,8.20
2016,03,28,09,20,8.20
2016,03,28,09,21,8.30
2016,03,28,09,22,8.30
2016,03,28,09,23,8.40
2016,03,28,09,24,8.40
2016,03,28,09,25,8.50
2016,03,28,09,26,8.60
2016,03,28,09,27,8.60
2016,03,28,09,28,8.70
2016,03,28,09,29,8.70
2016,03,28,09,30,8.70
2016,03,28,09,31,8.80
2016,03,28,09,32,8.80
2016,03,28,09,33,8.80
2016,03,28,09,34,8.80
2016,03,28,09,35,8.80
2016,03,28,09,36,8.80
2016,03,28,09,37,8.80
2016,03,28,09,38,8.70
2016,03,28,09,39,8.70
2016,03,28,09,40,8.70
2016,03,28,09,41,8.80
2016,03,28,09,42,8.80
2016,03,28,09,43,8.80
2016,03,28,09,44,8.80
2016,03,28,09,45,8.90
2016,03,28,09,46,8.90
2016,03,28,09,47,8.90
2016,03,28,09,48,9.00
2016,03,28,09,49,9.00
2016,03,28,09,50,9.00
2016,03,28,09,51,9.00
2016,03,28,09,52,9.00
2016,03,28,09,53,9.00
2016,03,28,09,54,9.10
2016,03,28,09,55,9.20
2016,03,28,09,56,9.20
2016,03,28,09,57,9.20
2016,03,28,09,58,9.20
2016,03,28,09,59,9.30
2016,03,28,10,00,9.30
2016,03,28,10,01,9.40
2016,03,28,10,02,9.40
2016,03,28,10,03,9.40
2016,03,28,10,04,9.40
2016,03,28,10,05,9.40
2016,03,28,10,06,9.30
2016,03,28,10,07,9.40
2016,03,28,10,08,9.40
2016,03,28,10,09,9.40
2016,03,28,10,10,9.40
2016,03,28,10,11,9.40
2016,03,28,10,12,9.30
2016,03,28,10,13,9.30
2016,03,28,10,14,9.30
2016,03,28,10,15,9.30
2016,03,28,10,16,9.40
2016,03,28,10,17,9.40
2016,03,28,10,18,9.40
2016,03,28,10,19,9.40
2016,03,28,10,20,9.50
2016,03,28,10,21,9.50
2016,03,28,10,22,9.40
2016,03,28,10,23,9.40
2016,03,28,10,24,9.40
2016,03,28,10,25,9.40
2016,03,28,10,26,9.40
2016,03,28,10,27,9.40
2016,03,28,10,28,9.40
2016,03,28,10,29,9.40
2016,03,28,10,30,9.50
2016,03,28,10,31,9.50
2016,03,28,10,32,9.60
2016,03,28,10,33,9.60
2016,03,28,10,34,9.60
2016,03,28,10,35,9.80
2016,03,28,10,36,9.90
2016,03,28,10,37,10.00
2016,03,28,10,38,10.10
2016,03,28,10,39,10.10
2016,03,28,10,40,10.10
2016,03,28,10,41,10.10
2016,03,28,10,42,10.20
2016,03,28,10,43,10.30
2016,03,28,10,44,10.30
2016,03,28,10,45,10.30
2016,03,28,10,46,10.30
2016,03,28,10,47,10.30
2016,03,28,10,48,10.30
2016,03,28,10,49,10.20
2016,03,28,10,50,10.20
2016,03,28,10,51,10.20
2016,03,28,10,52,10.10
2016,03,28,10,53,10.10
2016,03,28,10,54,10.00
2016,03,28,10,55,9.90
2016,03,28,10,56,9.90
2016,03,28,10,57,9.80
2016,03,28,10,58,9.80
2016,03,28,10,59,9.80
2016,03,28,11,00,9.80
2016,03,28,11,01,9.80
2016,03,28,11,02,9.80
2016,03,28,11,03,9.80
2016,03,28,11,04,9.80
2016,03,28,11,05,9.80
2016,03,28,11,06,9.80
2016,03,28,11,07,9.80
2016,03,28,11,08,9.90
2016,03,28,11,09,9.90
2016,03,28,11,10,9.90
2016,03,28,11,11,10.00
2016,03,28,11,12,10.00
2016,03,28,11,13,10.20
2016,03,28,11,14,10.30
2016,03,28,11,15,10.30
2016,03,28,11,16,10.30
2016,03,28,11,17,10.40
2016,03,28,11,18,10.40
2016,03,28,11,19,10.40
2016,03,28,11,20,10.40
2016,03,28,11,21,10.40
2016,03,28,11,22,10.40
2016,03,28,11,23,10.40
2016,03,28,11,24,10.50
2016,03,28,11,25,10.50
2016,03,28,11,26,10.60
2016,03,28,11,27,10.70
2016,03,28,11,28,10.80
2016,03,28,11,29,10.70
2016,03,28,11,30,10.70
2016,03,28,11,31,10.70
2016,03,28,11,32,10.70
2016,03,28,11,33,10.80
2016,03,28,11,34,10.90
2016,03,28,11,35,10.90
2016,03,28,11,36,10.90
2016,03,28,11,37,10.80
2016,03,28,11,38,10.80
2016,03,28,11,39,10.80
2016,03,28,11,40,10.70
2016,03,28,11,41,10.60
2016,03,28,11,42,10.60
2016,03,28,11,43,10.60
2016,03,28,11,44,10.60
2016,03,28,11,45,10.60
2016,03,28,11,46,10.60
2016,03,28,11,47,10.60
2016,03,28,11,48,10.60
2016,03,28,11,49,10.60
2016,03,28,11,50,10.60
2016,03,28,11,51,10.50
2016,03,28,11,52,10.40
2016,03,28,11,53,10.40
2016,03,28,11,54,10.40
2016,03,28,11,55,10.40
2016,03,28,11,56,10.40
2016,03,28,11,57,10.50
2016,03,28,11,58,10.50
2016,03,28,11,59,10.60
2016,03,28,12,00,10.60
2016,03,28,12,01,10.60
2016,03,28,12,02,10.60
2016,03,28,12,03,10.60
2016,03,28,12,04,10.50
2016,03,28,12,05,10.50
2016,03,28,12,06,10.40
2016,03,28,12,07,10.40
2016,03,28,12,08,10.40
2016,03,28,12,09,10.40
2016,03,28,12,10,10.40
2016,03,28,12,11,10.40
2016,03,28,12,12,10.40
2016,03,28,12,13,10.40
2016,03,28,12,14,10.30
2016,03,28,12,15,10.20
2016,03,28,12,16,10.20
2016,03,28,12,17,10.20
2016,03,28,12,18,10.30
2016,03,28,12,19,10.30
2016,03,28,12,20,10.40
2016,03,28,12,21,10.40
2016,03,28,12,22,10.40
2016,03,28,12,23,10.40
2016,03,28,12,24,10.40
2016,03,28,12,25,10.40
2016,03,28,12,26,10.40
2016,03,28,12,27,10.40
2016,03,28,12,28,10.40
2016,03,28,12,29,10.40
2016,03,28,12,30,10.50
2016,03,28,12,31,10.50
2016,03,28,12,32,10.50
2016,03,28,12,33,10.60
2016,03,28,12,34,10.60
2016,03,28,12,35,10.60
2016,03,28,12,36,10.70
2016,03,28,12,37,10.70
2016,03,28,12,38,10.70
2016,03,28,12,39,10.70
2016,03,28,12,40,10.70
2016,03,28,12,41,10.70
2016,03,28,12,42,10.80
2016,03,28,12,43,10.80
2016,03,28,12,44,10.90
2016,03,28,12,45,10.90
2016,03,28,12,46,10.90
2016,03,28,12,47,11.00
2016,03,28,12,48,11.20
2016,03,28,12,49,11.30
2016,03,28,12,50,11.50
2016,03,28,12,51,11.60
2016,03,28,12,52,11.70
2016,03,28,12,53,11.70
2016,03,28,12,54,11.70
2016,03,28,12,55,11.70
2016,03,28,12,56,11.70
2016,03,28,12,57,11.70
2016,03,28,12,58,11.60
2016,03,28,12,59,11.60
2016,03,28,13,00,11.50
2016,03,28,13,01,11.30
2016,03,28,13,02,11.20
2016,03,28,13,03,11.10
2016,03,28,13,04,11.10
2016,03,28,13,05,11.00
2016,03,28,13,06,11.00
2016,03,28,13,07,11.10
2016,03,28,13,08,11.10
2016,03,28,13,09,11.10
2016,03,28,13,10,11.20
2016,03,28,13,11,11.10
2016,03,28,13,12,11.00
2016,03,28,13,13,10.80
2016,03,28,13,14,10.70
2016,03,28,13,15,10.60
2016,03,28,13,16,10.60
2016,03,28,13,17,10.50
2016,03,28,13,18,10.50
2016,03,28,13,19,10.40
2016,03,28,13,20,10.40
2016,03,28,13,21,10.40
2016,03,28,13,22,10.40
2016,03,28,13,23,10.50
2016,03,28,13,24,10.50
2016,03,28,13,25,10.60
2016,03,28,13,26,10.60
2016,03,28,13,27,10.60
2016,03,28,13,28,10.70
2016,03,28,13,29,10.70
2016,03,28,13,30,10.70
2016,03,28,13,31,10.80
2016,03,28,13,32,10.80
2016,03,28,13,33,10.70
2016,03,28,13,34,10.80
2016,03,28,13,35,10.90
2016,03,28,13,36,10.90
2016,03,28,13,37,10.90
2016,03,28,13,38,10.80
2016,03,28,13,39,10.80
2016,03,28,13,40,10.70
2016,03,28,13,41,10.70
2016,03,28,13,42,10.80
2016,03,28,13,43,10.70
2016,03,28,13,44,10.70
2016,03,28,13,45,10.60
2016,03,28,13,46,10.50
2016,03,28,13,47,10.40
2016,03,28,13,48,10.40
2016,03,28,13,49,10.30
2016,03,28,13,50,10.30
2016,03,28,13,51,10.30
2016,03,28,13,52,10.40
2016,03,28,13,53,10.50
2016,03,28,13,54,10.50
2016,03,28,13,55,10.60
2016,03,28,13,56,10.70
2016,03,28,13,57,10.70
2016,03,28,13,58,10.70
2016,03,28,13,59,10.60
2016,03,28,14,00,10.60
2016,03,28,14,01,10.60
2016,03,28,14,02,10.60
2016,03,28,14,03,10.60
2016,03,28,14,04,10.60
2016,03,28,14,05,10.70
2016,03,28,14,06,10.70
2016,03,28,14,07,10.80
2016,03,28,14,08,10.90
2016,03,28,14,09,11.00
2016,03,28,14,10,11.00
2016,03,28,14,11,11.10
2016,03,28,14,12,11.20
2016,03,28,14,13,11.20
2016,03,28,14,14,11.20
2016,03,28,14,15,11.20
2016,03,28,14,16,11.20
2016,03,28,14,17,11.20
2016,03,28,14,18,11.20
2016,03,28,14,19,11.20
2016,03,28,14,20,11.30
2016,03,28,14,21,11.40
2016,03,28,14,22,11.50
2016,03,28,14,23,11.50
2016,03,28,14,24,11.40
2016,03,28,14,25,11.40
2016,03,28,14,26,11.40
2016,03,28,14,27,11.30
2016,03,28,14,28,11.30
2016,03,28,14,29,11.40
2016,03,28,14,30,11.40
2016,03,28,14,31,11.40
2016,03,28,14,32,11.40
2016,03,28,14,33,11.40
2016,03,28,14,34,11.50
2016,03,28,14,35,11.60
2016,03,28,14,36,11.70
2016,03,28,14,37,11.70
2016,03,28,14,38,11.80
2016,03,28,14,39,11.80
2016,03,28,14,40,11.80
2016,03,28,14,41,11.80
2016,03,28,14,42,11.80
2016,03,28,14,43,11.80
2016,03,28,14,44,11.80
2016,03,28,14,45,11.70
2016,03,28,14,46,11.70
2016,03,28,14,47,11.80
2016,03,28,14,48,11.80
2016,03,28,14,49,11.90
2016,03,28,14,50,12.00
2016,03,28,14,51,12.00
2016,03,28,14,52,12.00
2016,03,28,14,53,12.00
2016,03,28,14,54,12.00
2016,03,28,14,55,12.00
2016,03,28,14,56,12.00
2016,03,28,14,57,11.90
2016,03,28,14,58,11.90
2016,03,28,14,59,11.90
2016,03,28,15,00,11.90
2016,03,28,15,01,12.00
2016,03,28,15,02,12.10
2016,03,28,15,03,12.10
2016,03,28,15,04,12.20
2016,03,28,15,05,12.20
2016,03,28,15,06,12.30
2016,03,28,15,07,12.30
2016,03,28,15,08,12.20
2016,03,28,15,09,12.20
2016,03,28,15,10,12.10
2016,03,28,15,11,12.10
2016,03,28,15,12,12.10
2016,03,28,15,13,12.10
2016,03,28,15,14,12.10
2016,03,28,15,15,12.10
2016,03,28,15,16,12.10
2016,03,28,15,17,12.20
2016,03,28,15,18,12.20
2016,03,28,15,19,12.30
2016,03,28,15,20,12.30
2016,03,28,15,21,12.30
2016,03,28,15,22,12.30
2016,03,28,15,23,12.20
2016,03,28,15,24,12.20
2016,03,28,15,25,12.10
2016,03,28,15,26,12.10
2016,03,28,15,27,12.10
2016,03,28,15,28,12.00
2016,03,28,15,29,12.00
2016,03,28,15,30,11.90
2016,03,28,15,31,11.80
2016,03,28,15,32,11.80
2016,03,28,15,33,11.80
2016,03,28,15,34,11.80
2016,03,28,15,35,11.80
2016,03,28,15,36,11.80
2016,03,28,15,37,11.80
2016,03,28,15,38,11.80
2016,03,28,15,39,11.80
2016,03,28,15,40,11.80
2016,03,28,15,41,11.80
2016,03,28,15,42,11.70
2016,03,28,15,43,11.70
2016,03,28,15,44,11.70
2016,03,28,15,45,11.70
2016,03,28,15,46,11.70
2016,03,28,15,47,11.60
2016,03,28,15,48,11.60
2016,03,28,15,49,11.70
2016,03,28,15,50,11.70
2016,03,28,15,51,11.80
2016,03,28,15,52,11.80
2016,03,28,15,53,11.90
2016,03,28,15,54,11.90
2016,03,28,15,55,11.90
2016,03,28,15,56,11.90
2016,03,28,15,57,11.90
2016,03,28,15,58,11.90
2016,03,28,15,59,11.90
2016,03,28,16,00,11.90
2016,03,28,16,01,11.90
2016,03,28,16,02,11.80
2016,03,28,16,03,11.80
2016,03,28,16,04,11.80
2016,03,28,16,05,11.70
2016,03,28,16,06,11.70
2016,03,28,16,07,11.70
2016,03,28,16,08,11.70
2016,03,28,16,09,11.60
2016,03,28,16,10,11.60
2016,03,28,16,11,11.60
2016,03,28,16,12,11.60
2016,03,28,16,13,11.60
2016,03,28,16,14,11.60
2016,03,28,16,15,11.60
2016,03,28,16,16,11.60
2016,03,28,16,17,11.70
2016,03,28,16,18,11.70
2016,03,28,16,19,11.70
2016,03,28,16,20,11.70
2016,03,28,16,21,11.80
2016,03,28,16,22,11.80
2016,03,28,16,23,11.80
2016,03,28,16,24,11.80
2016,03,28,16,25,11.80
2016,03,28,16,26,11.80
2016,03,28,16,27,11.70
2016,03,28,16,28,11.70
2016,03,28,16,29,11.70
2016,03,28,16,30,11.70
2016,03,28,16,31,11.80
2016,03,28,16,32,11.80
2016,03,28,16,33,11.70
2016,03,28,16,34,11.70
2016,03,28,16,35,11.70
2016,03,28,16,36,11.70
2016,03,28,16,37,11.70
2016,03,28,16,38,11.70
2016,03,28,16,39,11.70
2016,03,28,16,40,11.70
2016,03,28,16,41,11.70
2016,03,28,16,42,11.70
2016,03,28,16,43,11.70
2016,03,28,16,44,11.70
2016,03,28,16,45,11.70
2016,03,28,16,46,11.70
2016,03,28,16,47,11.70
2016,03,28,16,48,11.70
2016,03,28,16,49,11.70
2016,03,28,16,50,11.70
2016,03,28,16,51,11.70
2016,03,28,16,52,11.70
2016,03,28,16,53,11.70
2016,03,28,16,54,11.70
2016,03,28,16,55,11.80
2016,03,28,16,56,11.80
2016,03,28,16,57,11.80
2016,03,28,16,58,11.80
2016,03,28,16,59,11.80
2016,03,28,17,00,11.80
2016,03,28,17,01,11.80
2016,03,28,17,02,11.80
2016,03,28,17,03,11.80
2016,03,28,17,04,11.80
2016,03,28,17,05,11.80
2016,03,28,17,06,11.80
2016,03,28,17,07,11.80
2016,03,28,17,08,11.80
2016,03,28,17,09,11.80
2016,03,28,17,10,11.80
2016,03,28,17,11,11.80
2016,03,28,17,12,11.80
2016,03,28,17,13,11.80
2016,03,28,17,14,11.80
2016,03,28,17,15,11.80
2016,03,28,17,16,11.80
2016,03,28,17,17,11.80
2016,03,28,17,18,11.80
2016,03,28,17,19,11.80
2016,03,28,17,20,11.80
2016,03,28,17,21,11.80
2016,03,28,17,22,11.80
2016,03,28,17,23,11.80
2016,03,28,17,24,11.70
2016,03,28,17,25,11.70
2016,03,28,17,26,11.70
2016,03,28,17,27,11.70
2016,03,28,17,28,11.70
2016,03,28,17,29,11.60
2016,03,28,17,30,11.60
2016,03,28,17,31,11.60
2016,03,28,17,32,11.60
2016,03,28,17,33,11.60
2016,03,28,17,34,11.60
2016,03,28,17,35,11.60
2016,03,28,17,36,11.70
2016,03,28,17,37,11.70
2016,03,28,17,38,11.60
2016,03,28,17,39,11.70
2016,03,28,17,40,11.70
2016,03,28,17,41,11.70
2016,03,28,17,42,11.70
2016,03,28,17,43,11.70
2016,03,28,17,44,11.70
2016,03,28,17,45,11.70
2016,03,28,17,46,11.70
2016,03,28,17,47,11.70